{"data":{"norad_id":51989,"intl_designator":"2022-025AK","name":"STARLINK-3642","alt_names":[],"object_type":"PAYLOAD","status":"ACTIVE","operator":null,"country":"US","launch_date":"2022-03-09","launch_site_code":"AFETR","launch_vehicle":null,"mission":null,"orbit_class":"UNKNOWN","rcs_meters":null,"size_class":null,"mass_kg":null,"dimensions":null,"purposes":["comms"],"wikipedia_slug":null,"has_3d_model":false,"image_url":null,"decayed_at":null,"tle_current":{"epoch":"2026-09-20T04:26:02.622048Z","epoch_age_seconds":83444,"freshness":"FRESH","line1":"1 51989U 22025AK  26263.18475257 -.00002900  00000+0 -74749-4 0  9998","line2":"2 51989  53.1586 229.1278 0001173 101.6293 258.4841 15.34392893250654","mean_motion":15.34392893,"eccentricity":0.0001173,"inclination_deg":53.1586,"raan_deg":229.1278,"arg_perigee_deg":101.6293,"mean_anomaly_deg":258.4841,"bstar":-7.4749e-5,"rev_number":25065,"period_min":93.848192765319,"perigee_km":461.9219307524,"apogee_km":463.52679682834,"semimajor_km":6840.8613637904,"source":"CELESTRAK","updated_at":"2026-09-20T09:00:39.980817Z"}}}